Location: Maccacari
(45.1333°N, 11.1333°E)
Time: 03:37:21
(UTC+00:00)

Altair - Pass Details

Date: 31 January 2021
Orbit: 1501 x 1682 km, 47.2° (Epoch: 01 March)

Event Time Altitude Azimuth Distance (km) Brightness Sun altitude
Rises 10:23:48 0° 291° (WNW) 4,940 9.8 25.9°
Reaches altitude 10° 10:28:01 10° 277° (W) 3,945 9.5 26.1°
Maximum altitude 10:34:50 21° 234° (SW) 3,134 9.6 26.4°
Drops below altitude 10° 10:41:35 10° 190° (S) 3,879 10.9 26.7°
Sets 10:45:43 0° 175° (S) 4,835 11.4 26.8°
